This demonstration page uses our WeatherBlox Daily Observations layout. Learn more.

Left ArrowRight Arrow

40.92945, -100.16068

Hourly Observations for October 9, 2021

Temp ( °F °C ) Dew Point ( °F °C ) Humidity (%) Winds ( mph kmh ) Pressure ( in mb ) Visibility ( mi km ) Precip ( " mm )
12:15 am 00:15 Clear 58 14.2 54 12 87 87 E 5 7 29.82 1010 10 16 0.00 0.00
12:35 am 00:35 Clear 57 13.7 53 11.9 89 89 ESE 5 7 29.82 1010 10 16 0.00 0.00
12:55 am 00:55 Clear 57 14 54 12.1 88 88 ESE 6 9 29.80 1009 10 16 0.00 0.00
1:15 am 01:15 Clear 59 15.2 55 12.6 85 85 ESE 5 7 29.78 1009 10 16 0.00 0.00
1:35 am 01:35 Clear 60 15.6 54 12.4 81 81 SE 5 7 29.77 1008 10 16 0.00 0.00
1:55 am 01:55 Clear 57 14.1 53 11.8 86 86 E 5 7 29.78 1009 10 16 0.00 0.00
2:15 am 02:15 Clear 55 12.6 53 11.4 92 92 S 3 6 29.80 1009 10 16 0.00 0.00
2:35 am 02:35 Clear 56 13.6 54 12 90 90 E 3 6 29.78 1008 10 16 0.00 0.00
2:55 am 02:55 Clear 55 13 53 11.5 91 91 ESE 3 6 29.77 1008 10 16 0.00 0.00
3:15 am 03:15 Clear 58 14.4 55 12.5 88 88 ESE 6 9 29.75 1007 10 16 0.00 0.00
3:35 am 03:35 Clear 57 14.1 54 12.4 90 90 ESE 5 7 29.74 1007 10 16 0.00 0.00
3:55 am 03:55 Clear 59 14.9 55 13 89 89 ESE 6 9 29.73 1007 10 16 0.00 0.00
4:15 am 04:15 Clear 59 15 55 13 88 88 ESE 5 7 29.73 1007 10 16 0.00 0.00
4:35 am 04:35 Clear 57 14 54 12.3 90 90 Calm 29.73 1007 10 16 0.00 0.00
4:55 am 04:55 Clear 55 13 54 12 94 94 E 3 6 29.72 1007 10 16 0.00 0.00
5:15 am 05:15 Clear 55 13 54 12 94 94 E 5 7 29.71 1006 10 16 0.00 0.00
5:35 am 05:35 Clear 56 13.1 54 12 93 93 E 3 6 29.70 1006 10 16 0.00 0.00
5:55 am 05:55 Clear 55 13 54 12.1 94 94 ESE 6 9 29.68 1005 10 16 0.00 0.00
6:15 am 06:15 Clear 58 14.6 55 13 90 90 E 6 9 29.66 1004 10 16 0.00 0.00
6:35 am 06:35 Clear 59 14.8 56 13.3 91 91 ESE 3 6 29.66 1004 10 16 0.00 0.00
6:55 am 06:55 Clear 58 14.6 56 13.2 91 91 ESE 5 7 29.65 1004 10 16 0.00 0.00
7:15 am 07:15 Clear 58 14.5 56 13.1 91 91 Calm 29.65 1004 10 16 0.00 0.00
7:35 am 07:35 Clear 57 14 55 12.9 93 93 Calm 29.66 1004 10 16 0.00 0.00
7:55 am 07:55 Sunny 57 14.1 55 13 93 93 E 3 6 29.64 1004 10 16 0.00 0.00
8:15 am 08:15 Sunny 57 13.8 55 13 95 95 E 5 7 29.64 1004 7 11 0.00 0.00
8:35 am 08:35 Sunny 57 14 56 13.1 94 94 E 5 7 29.63 1003 7 11 0.00 0.00
8:55 am 08:55 Sunny 59 15 56 13.6 91 91 Calm 29.62 1003 10 16 0.00 0.00
9:15 am 09:15 Sunny 59 14.8 56 13.6 93 93 Calm 29.62 1003 7 11 0.00 0.00
9:35 am 09:35 Sunny 60 15.5 57 14.1 91 91 E 3 6 29.60 1002 7 11 0.00 0.00
9:55 am 09:55 Sunny 61 15.9 58 14.3 90 90 Calm 29.61 1003 10 16 0.00 0.00
10:15 am 10:15 Sunny 61 16.2 58 14.6 90 90 Calm 29.61 1003 10 16 0.00 0.00
10:35 am 10:35 Sunny 62 16.7 58 14.6 88 88 SE 3 6 29.59 1002 10 16 0.00 0.00
10:55 am 10:55 Sunny 63 17.2 60 15.3 89 89 Calm 29.58 1002 10 16 0.00 0.00
11:15 am 11:15 Sunny 64 17.8 60 15.3 85 85 WNW 5 7 29.57 1001 10 16 0.00 0.00
11:35 am 11:35 Sunny 65 18.1 60 15.8 87 87 W 3 6 29.57 1001 10 16 0.00 0.00
11:55 am 11:55 Sunny 67 19.4 60 15.6 79 79 W 7 11 29.56 1001 10 16 0.00 0.00
12:15 pm 12:15 Sunny 68 20 60 15.4 75 75 W 6 9 29.54 1000 10 16 0.00 0.00
12:55 pm 12:55 Sunny 72 22 58 14.6 63 63 WSW 7 11 29.52 1000 10 16 0.00 0.00
1:15 pm 13:15 Sunny 73 22.7 57 13.8 57 57 W 12 19 29.51 999 10 16 0.00 0.00
1:35 pm 13:35 Sunny 75 24.1 57 13.7 52 52 W 14 22 29.50 999 10 16 0.00 0.00
1:55 pm 13:55 Sunny 76 24.3 55 12.8 49 49 WSW 12 19 29.50 999 10 16 0.00 0.00
2:15 pm 14:15 Sunny 76 24.7 56 13.3 49 49 W 13 20 29.49 999 10 16 0.00 0.00
2:35 pm 14:35 Sunny 77 25.1 56 13.2 48 48 WNW 13 20 29.48 998 10 16 0.00 0.00
2:55 pm 14:55 Sunny 78 25.5 58 14.3 50 50 W 14 22 29.48 998 10 16 0.00 0.00
3:15 pm 15:15 Sunny 77 25 56 13.6 49 49 W 16 26 29.48 998 10 16 0.00 0.00
3:35 pm 15:35 Sunny 78 25.4 57 14.1 50 50 WNW 12 19 29.47 998 10 16 0.00 0.00
3:55 pm 15:55 Sunny 79 25.9 58 14.3 49 49 WNW 10 17 29.46 998 10 16 0.00 0.00
4:15 pm 16:15 Sunny 79 26 57 13.9 47 47 WNW 8 13 29.46 998 10 16 0.00 0.00
4:35 pm 16:35 Sunny 80 26.8 55 13 43 43 W 10 17 29.45 997 10 16 0.00 0.00
4:55 pm 16:55 Sunny 80 26.9 52 10.9 37 37 W 9 15 29.46 997 10 16 0.00 0.00
5:15 pm 17:15 Sunny 79 26.3 51 10.3 37 37 W 8 13 29.46 998 10 16 0.00 0.00
5:35 pm 17:35 Sunny 78 25.8 43 5.9 28 28 WNW 16 26 29.48 998 10 16 0.00 0.00
5:55 pm 17:55 Sunny 78 25.5 42 5.6 28 28 WNW 14 22 29.49 999 10 16 0.00 0.00
6:15 pm 18:15 Sunny 78 25.7 43 6.3 29 29 WNW 10 17 29.49 999 10 16 0.00 0.00
6:35 pm 18:35 Sunny 76 24.4 42 5.4 29 29 NW 10 17 29.51 999 10 16 0.00 0.00
6:55 pm 18:55 Sunny 71 21.8 43 6 36 36 NW 8 13 29.53 1000 10 16 0.00 0.00
7:15 pm 19:15 Clear 68 19.9 43 6 40 40 NNW 7 11 29.54 1000 10 16 0.00 0.00
7:35 pm 19:35 Clear 65 18.4 44 6.4 46 46 N 6 9 29.56 1001 10 16 0.00 0.00
7:55 pm 19:55 Clear 64 17.6 44 6.8 49 49 NNW 3 6 29.57 1001 10 16 0.00 0.00
8:15 pm 20:15 Clear 60 15.3 46 7.6 60 60 W 3 6 29.61 1003 10 16 0.00 0.00
8:35 pm 20:35 Clear 58 14.3 46 7.5 64 64 W 6 9 29.62 1003 10 16 0.00 0.00
8:55 pm 20:55 Clear 56 13.4 46 8 70 70 WSW 7 11 29.65 1004 10 16 0.00 0.00
9:15 pm 21:15 Clear 55 12.6 47 8.1 74 74 W 7 11 29.67 1005 10 16 0.00 0.00
9:35 pm 21:35 Clear 55 13 46 8 72 72 WNW 8 13 29.66 1005 10 16 0.00 0.00
9:55 pm 21:55 Clear 57 14.1 45 7.3 64 64 W 7 11 29.66 1005 10 16 0.00 0.00
10:15 pm 22:15 Clear 56 13.3 45 7.2 67 67 WNW 6 9 29.67 1005 10 16 0.00 0.00
10:35 pm 22:35 Clear 53 11.4 45 7 75 75 NW 8 13 29.70 1006 10 16 0.00 0.00
10:55 pm 22:55 Clear 54 12.2 44 6.7 69 69 NW 8 13 29.71 1006 10 16 0.00 0.00
11:15 pm 23:15 Clear 54 12.2 44 6.5 68 68 NW 8 13 29.71 1006 10 16 0.00 0.00
11:35 pm 23:35 Clear 55 12.5 44 6.8 68 68 NW 9 15 29.71 1006 10 16 0.00 0.00
11:55 pm 23:55 Clear 56 13.5 44 6.5 63 63 WNW 9 15 29.70 1006 10 16 0.00 0.00

Powered by AerisWeather